Time,TemperatureF,DewpointF,PressureIn,WindDirection,WindDirectionDegrees,WindSpeedMPH,WindSpeedGustMPH,Humidity,HourlyPrecipIn,Conditions,Clouds,dailyrainin,SoftwareType,DateUTC
2013-03-28 00:00:00,46.4,42.2,30.30,North,0,0.0,0.0,85,0.00,,,0.00,WUHU216HW,2013-03-28 07:00:00,
2013-03-28 00:05:00,46.3,42.0,30.30,North,0,0.0,0.0,85,0.00,,,0.00,WUHU216HW,2013-03-28 07:05:00,
2013-03-28 00:10:00,46.1,41.9,30.30,North,0,0.0,0.0,85,0.00,,,0.00,WUHU216HW,2013-03-28 07:10:00,
2013-03-28 00:15:00,45.9,41.9,30.30,North,0,0.0,0.0,86,0.00,,,0.00,WUHU216HW,2013-03-28 07:15:00,
2013-03-28 00:20:00,45.7,41.8,30.30,North,0,0.0,0.0,86,0.00,,,0.00,WUHU216HW,2013-03-28 07:20:00,
2013-03-28 00:25:00,45.7,41.8,30.30,North,0,0.0,0.0,86,0.00,,,0.00,WUHU216HW,2013-03-28 07:25:00,
2013-03-28 00:30:00,45.7,41.8,30.30,North,0,0.0,0.0,86,0.00,,,0.00,WUHU216HW,2013-03-28 07:30:00,
2013-03-28 00:35:00,45.7,41.8,30.30,North,0,0.0,0.0,86,0.00,,,0.00,WUHU216HW,2013-03-28 07:35:00,
2013-03-28 00:40:00,45.7,41.8,30.30,North,0,0.0,0.0,86,0.00,,,0.00,WUHU216HW,2013-03-28 07:40:00,
2013-03-28 00:45:00,45.5,41.6,30.30,North,0,0.0,0.0,86,0.00,,,0.00,WUHU216HW,2013-03-28 07:45:00,
2013-03-28 00:50:00,45.5,41.6,30.30,NW,315,0.0,0.0,86,0.00,,,0.00,WUHU216HW,2013-03-28 07:50:00,
2013-03-28 00:55:00,45.4,41.4,30.30,NW,315,0.0,0.0,86,0.00,,,0.00,WUHU216HW,2013-03-28 07:55:00,
2013-03-28 01:00:00,45.4,41.4,30.30,NW,315,0.0,0.0,86,0.00,,,0.00,WUHU216HW,2013-03-28 08:00:00,
2013-03-28 01:05:00,45.2,41.2,30.30,West,270,0.0,0.0,86,0.00,,,0.00,WUHU216HW,2013-03-28 08:05:00,
2013-03-28 01:10:00,45.0,41.0,30.30,West,270,0.0,0.0,86,0.00,,,0.00,WUHU216HW,2013-03-28 08:10:00,
2013-03-28 01:15:00,45.0,41.0,30.30,West,270,0.0,0.0,86,0.00,,,0.00,WUHU216HW,2013-03-28 08:15:00,
2013-03-28 01:20:00,44.8,40.9,30.31,West,270,0.0,0.0,86,0.00,,,0.00,WUHU216HW,2013-03-28 08:20:00,
2013-03-28 01:25:00,44.8,40.9,30.31,West,270,0.0,0.0,86,0.00,,,0.00,WUHU216HW,2013-03-28 08:25:00,
2013-03-28 01:30:00,44.6,40.7,30.31,WSW,248,0.0,0.0,86,0.00,,,0.00,WUHU216HW,2013-03-28 08:30:00,
2013-03-28 01:35:00,44.6,40.7,30.31,WSW,248,0.0,0.0,86,0.00,,,0.00,WUHU216HW,2013-03-28 08:35:00,
2013-03-28 01:40:00,44.6,41.3,30.31,NW,315,0.0,0.0,88,0.00,,,0.00,WUHU216HW,2013-03-28 08:40:00,
2013-03-28 01:45:00,44.5,41.1,30.31,NW,315,0.0,0.0,88,0.00,,,0.00,WUHU216HW,2013-03-28 08:45:00,
2013-03-28 01:50:00,44.6,41.3,30.31,SSW,203,0.0,0.0,88,0.00,,,0.00,WUHU216HW,2013-03-28 08:50:00,
2013-03-28 01:55:00,44.6,41.3,30.31,SSW,203,0.0,0.0,88,0.00,,,0.00,WUHU216HW,2013-03-28 08:55:00,
2013-03-28 02:00:00,44.6,41.3,30.31,SSW,203,0.0,0.0,88,0.00,,,0.00,WUHU216HW,2013-03-28 09:00:00,
2013-03-28 02:05:00,44.6,41.3,30.31,SSW,203,0.0,0.0,88,0.00,,,0.00,WUHU216HW,2013-03-28 09:05:00,
2013-03-28 02:10:00,44.6,41.3,30.31,SSW,203,0.0,0.0,88,0.00,,,0.00,WUHU216HW,2013-03-28 09:10:00,
2013-03-28 02:15:00,44.6,41.3,30.32,SSW,203,0.0,0.0,88,0.00,,,0.00,WUHU216HW,2013-03-28 09:15:00,
2013-03-28 02:20:00,44.6,41.3,30.32,SSW,203,0.0,0.0,88,0.00,,,0.00,WUHU216HW,2013-03-28 09:20:00,
2013-03-28 02:25:00,44.6,41.3,30.32,SSW,203,0.0,0.0,88,0.00,,,0.00,WUHU216HW,2013-03-28 09:25:00,
2013-03-28 02:30:00,44.6,41.3,30.32,SSW,203,0.0,0.0,88,0.00,,,0.00,WUHU216HW,2013-03-28 09:30:00,
2013-03-28 02:35:00,44.6,41.3,30.31,SSW,203,0.0,0.0,88,0.00,,,0.00,WUHU216HW,2013-03-28 09:35:00,
2013-03-28 02:40:00,44.8,41.5,30.31,SSW,203,0.0,0.0,88,0.00,,,0.00,WUHU216HW,2013-03-28 09:40:00,
2013-03-28 02:45:00,44.6,41.3,30.31,SSW,203,0.0,0.0,88,0.00,,,0.00,WUHU216HW,2013-03-28 09:45:00,
2013-03-28 02:50:00,44.8,41.5,30.31,SSW,203,0.0,0.0,88,0.00,,,0.00,WUHU216HW,2013-03-28 09:50:00,
2013-03-28 02:55:00,44.8,41.5,30.32,SSW,203,0.0,0.4,88,0.00,,,0.00,WUHU216HW,2013-03-28 09:55:00,
2013-03-28 03:00:00,44.8,41.5,30.32,SSW,203,0.7,0.7,88,0.00,,,0.00,WUHU216HW,2013-03-28 10:00:00,
2013-03-28 03:05:00,44.8,41.5,30.32,South,180,0.0,0.7,88,0.00,,,0.00,WUHU216HW,2013-03-28 10:05:00,
2013-03-28 03:10:00,44.6,41.3,30.32,South,180,0.0,0.7,88,0.00,,,0.00,WUHU216HW,2013-03-28 10:10:00,
2013-03-28 03:15:00,44.6,41.3,30.32,South,180,0.0,0.4,88,0.00,,,0.00,WUHU216HW,2013-03-28 10:15:00,
2013-03-28 03:20:00,44.6,41.3,30.32,SSW,203,0.4,1.3,88,0.00,,,0.00,WUHU216HW,2013-03-28 10:20:00,
2013-03-28 03:25:00,44.6,41.3,30.32,SSW,203,0.0,1.3,88,0.00,,,0.00,WUHU216HW,2013-03-28 10:25:00,
2013-03-28 03:30:00,44.6,41.9,30.32,SSW,203,1.3,1.3,90,0.00,,,0.00,WUHU216HW,2013-03-28 10:30:00,
2013-03-28 03:35:00,44.5,41.5,30.32,NE,45,0.0,1.6,89,0.00,,,0.00,WUHU216HW,2013-03-28 10:35:00,
2013-03-28 03:40:00,44.5,41.1,30.32,SSW,203,0.4,1.6,88,0.00,,,0.00,WUHU216HW,2013-03-28 10:40:00,
2013-03-28 03:45:00,44.5,41.1,30.32,SSW,203,0.0,0.4,88,0.00,,,0.00,WUHU216HW,2013-03-28 10:45:00,
2013-03-28 03:50:00,44.6,41.3,30.32,SSW,203,0.0,0.4,88,0.00,,,0.00,WUHU216HW,2013-03-28 10:50:00,
2013-03-28 03:55:00,44.6,41.7,30.32,SSW,203,0.0,0.0,89,0.00,,,0.00,WUHU216HW,2013-03-28 10:55:00,
2013-03-28 04:00:00,44.6,41.7,30.32,SSW,203,0.0,0.0,89,0.00,,,0.00,WUHU216HW,2013-03-28 11:00:00,
2013-03-28 04:05:00,44.8,41.9,30.32,SSW,203,0.0,0.0,89,0.00,,,0.00,WUHU216HW,2013-03-28 11:05:00,
2013-03-28 04:10:00,44.8,41.9,30.32,SSW,203,0.0,0.0,89,0.00,,,0.00,WUHU216HW,2013-03-28 11:10:00,
2013-03-28 04:15:00,44.6,41.7,30.32,SSW,203,0.0,0.2,89,0.00,,,0.00,WUHU216HW,2013-03-28 11:15:00,
2013-03-28 04:20:00,44.8,41.9,30.32,SSW,203,0.0,0.0,89,0.00,,,0.00,WUHU216HW,2013-03-28 11:20:00,
2013-03-28 04:25:00,44.8,41.9,30.32,SSW,203,0.0,0.0,89,0.00,,,0.00,WUHU216HW,2013-03-28 11:25:00,
2013-03-28 04:30:00,44.8,41.9,30.32,SSW,203,0.0,0.0,89,0.00,,,0.00,WUHU216HW,2013-03-28 11:30:00,
2013-03-28 04:35:00,44.8,41.5,30.32,SSW,203,0.0,0.7,88,0.00,,,0.00,WUHU216HW,2013-03-28 11:35:00,
2013-03-28 04:40:00,44.6,41.3,30.32,SSE,158,1.1,1.6,88,0.00,,,0.00,WUHU216HW,2013-03-28 11:40:00,
2013-03-28 04:45:00,44.6,41.3,30.32,SSE,158,1.1,1.6,88,0.00,,,0.00,WUHU216HW,2013-03-28 11:45:00,
2013-03-28 05:00:00,44.3,41.3,30.33,South,180,0.0,0.0,89,0.00,,,0.00,WUHU216HW,2013-03-28 12:00:00,
2013-03-28 05:05:00,44.3,41.0,30.33,South,180,0.0,0.0,88,0.00,,,0.00,WUHU216HW,2013-03-28 12:05:00,
2013-03-28 05:10:00,44.1,40.8,30.34,South,180,0.0,0.0,88,0.00,,,0.00,WUHU216HW,2013-03-28 12:10:00,
2013-03-28 05:15:00,44.3,41.0,30.34,SW,225,0.0,0.4,88,0.00,,,0.00,WUHU216HW,2013-03-28 12:15:00,
2013-03-28 05:20:00,44.3,41.0,30.34,SW,225,0.0,0.4,88,0.00,,,0.00,WUHU216HW,2013-03-28 12:20:00,
2013-03-28 05:25:00,44.5,41.1,30.34,SW,225,0.0,0.0,88,0.00,,,0.00,WUHU216HW,2013-03-28 12:25:00,
2013-03-28 05:30:00,44.5,41.1,30.34,SW,225,0.0,0.0,88,0.00,,,0.00,WUHU216HW,2013-03-28 12:30:00,
2013-03-28 05:35:00,44.5,41.1,30.34,SW,225,0.0,0.0,88,0.00,,,0.00,WUHU216HW,2013-03-28 12:35:00,
2013-03-28 05:40:00,44.6,41.3,30.34,West,270,0.4,0.4,88,0.00,,,0.00,WUHU216HW,2013-03-28 12:40:00,
2013-03-28 05:45:00,44.6,41.7,30.35,West,270,0.0,0.4,89,0.00,,,0.00,WUHU216HW,2013-03-28 12:45:00,
2013-03-28 05:50:00,44.6,41.7,30.35,West,270,0.0,0.0,89,0.00,,,0.00,WUHU216HW,2013-03-28 12:50:00,
2013-03-28 05:55:00,44.6,41.7,30.35,NW,315,0.0,0.7,89,0.00,,,0.00,WUHU216HW,2013-03-28 12:55:00,
2013-03-28 06:00:00,44.8,42.1,30.35,SE,135,0.0,0.7,90,0.00,,,0.00,WUHU216HW,2013-03-28 13:00:00,
2013-03-28 06:05:00,44.8,41.9,30.35,SE,135,0.0,0.0,89,0.00,,,0.00,WUHU216HW,2013-03-28 13:05:00,
2013-03-28 06:10:00,45.0,42.3,30.35,SE,135,0.0,0.0,90,0.00,,,0.00,WUHU216HW,2013-03-28 13:10:00,
2013-03-28 06:15:00,45.0,42.3,30.35,ESE,113,0.0,0.0,90,0.00,,,0.00,WUHU216HW,2013-03-28 13:15:00,
2013-03-28 06:20:00,45.2,42.5,30.35,South,180,0.0,1.1,90,0.00,,,0.00,WUHU216HW,2013-03-28 13:20:00,
2013-03-28 06:25:00,45.4,42.7,30.35,West,270,0.2,1.1,90,0.01,,,0.01,WUHU216HW,2013-03-28 13:25:00,
2013-03-28 06:30:00,45.5,42.8,30.35,West,270,0.0,0.2,90,0.01,,,0.01,WUHU216HW,2013-03-28 13:30:00,
2013-03-28 06:35:00,45.5,42.8,30.35,WSW,248,0.0,0.4,90,0.01,,,0.01,WUHU216HW,2013-03-28 13:35:00,
2013-03-28 06:40:00,45.7,43.0,30.35,WSW,248,0.0,0.4,90,0.01,,,0.01,WUHU216HW,2013-03-28 13:40:00,
2013-03-28 06:45:00,45.7,43.0,30.36,WSW,248,0.0,0.0,90,0.01,,,0.01,WUHU216HW,2013-03-28 13:45:00,
2013-03-28 06:50:00,45.7,43.0,30.35,WSW,248,0.0,0.0,90,0.01,,,0.01,WUHU216HW,2013-03-28 13:50:00,
2013-03-28 06:55:00,45.7,43.0,30.35,WSW,248,0.0,0.0,90,0.01,,,0.01,WUHU216HW,2013-03-28 13:55:00,
2013-03-28 07:00:00,45.7,42.8,30.36,WSW,248,0.0,0.0,89,0.01,,,0.01,WUHU216HW,2013-03-28 14:00:00,
2013-03-28 07:05:00,45.7,42.8,30.36,WSW,248,0.0,0.0,89,0.01,,,0.01,WUHU216HW,2013-03-28 14:05:00,
2013-03-28 07:17:00,45.7,43.0,30.36,WSW,248,0.0,0.0,90,0.01,,,0.01,WUHU216HW,2013-03-28 14:17:00,
2013-03-28 07:22:00,45.7,43.0,30.36,WSW,248,0.0,0.0,90,0.00,,,0.01,WUHU216HW,2013-03-28 14:22:00,
2013-03-28 07:27:00,45.7,42.8,30.36,WSW,248,0.0,0.0,89,0.00,,,0.01,WUHU216HW,2013-03-28 14:27:00,
2013-03-28 07:32:00,45.7,42.8,30.37,WSW,248,0.0,0.0,89,0.00,,,0.01,WUHU216HW,2013-03-28 14:32:00,
2013-03-28 07:37:00,45.7,42.8,30.37,WSW,248,0.0,0.0,89,0.00,,,0.01,WUHU216HW,2013-03-28 14:37:00,
2013-03-28 07:42:00,45.9,42.9,30.37,WSW,248,0.0,0.0,89,0.00,,,0.01,WUHU216HW,2013-03-28 14:42:00,
2013-03-28 07:47:00,45.9,42.9,30.37,WSW,248,0.0,0.0,89,0.00,,,0.01,WUHU216HW,2013-03-28 14:47:00,
2013-03-28 07:52:00,46.1,43.1,30.37,WSW,248,0.0,0.2,89,0.00,,,0.01,WUHU216HW,2013-03-28 14:52:00,
2013-03-28 07:57:00,45.9,42.9,30.37,WSW,248,0.0,0.2,89,0.00,,,0.01,WUHU216HW,2013-03-28 14:57:00,
2013-03-28 08:02:00,45.9,42.9,30.37,WSW,248,0.0,0.0,89,0.00,,,0.01,WUHU216HW,2013-03-28 15:02:00,
2013-03-28 08:07:00,45.9,42.9,30.37,WSW,248,0.0,0.0,89,0.00,,,0.01,WUHU216HW,2013-03-28 15:07:00,
2013-03-28 08:12:00,45.9,42.9,30.37,WSW,248,0.0,0.0,89,0.00,,,0.01,WUHU216HW,2013-03-28 15:12:00,
2013-03-28 08:17:00,45.9,42.9,30.37,WSW,248,0.0,0.0,89,0.00,,,0.01,WUHU216HW,2013-03-28 15:17:00,
2013-03-28 08:22:00,45.7,42.8,30.38,WSW,248,0.0,0.0,89,0.00,,,0.01,WUHU216HW,2013-03-28 15:22:00,
2013-03-28 08:27:00,45.7,42.8,30.38,WSW,248,0.0,0.0,89,0.00,,,0.01,WUHU216HW,2013-03-28 15:27:00,
2013-03-28 08:32:00,45.9,43.2,30.38,WSW,248,0.0,0.0,90,0.00,,,0.01,WUHU216HW,2013-03-28 15:32:00,
2013-03-28 08:37:00,46.1,43.4,30.38,SW,225,0.0,0.0,90,0.01,,,0.02,WUHU216HW,2013-03-28 15:37:00,
2013-03-28 08:43:00,46.1,43.4,30.38,SW,225,0.0,0.0,90,0.01,,,0.02,WUHU216HW,2013-03-28 15:43:00,
2013-03-28 08:48:00,46.3,43.6,30.38,SW,225,0.4,1.1,90,0.01,,,0.02,WUHU216HW,2013-03-28 15:48:00,
2013-03-28 08:53:00,46.4,43.7,30.38,SW,225,0.0,1.1,90,0.02,,,0.03,WUHU216HW,2013-03-28 15:53:00,
2013-03-28 08:58:00,46.4,43.7,30.38,SW,225,0.0,0.0,90,0.02,,,0.03,WUHU216HW,2013-03-28 15:58:00,
2013-03-28 09:03:00,46.8,44.1,30.38,SW,225,0.2,0.2,90,0.02,,,0.03,WUHU216HW,2013-03-28 16:03:00,
2013-03-28 09:08:00,46.8,44.1,30.38,SW,225,0.0,0.2,90,0.02,,,0.03,WUHU216HW,2013-03-28 16:08:00,
2013-03-28 09:13:00,47.0,44.3,30.38,SSW,203,1.3,1.3,90,0.02,,,0.03,WUHU216HW,2013-03-28 16:13:00,
2013-03-28 09:17:00,47.2,44.5,30.38,SSW,203,0.9,1.3,90,0.02,,,0.03,WUHU216HW,2013-03-28 16:17:00,
2013-03-28 09:23:00,47.3,44.6,30.38,SSW,203,0.0,1.1,90,0.02,,,0.03,WUHU216HW,2013-03-28 16:23:00,
2013-03-28 09:28:00,47.5,44.8,30.38,SE,135,0.0,0.4,90,0.02,,,0.03,WUHU216HW,2013-03-28 16:28:00,
2013-03-28 09:33:00,47.7,44.6,30.39,SSW,203,0.4,0.9,89,0.01,,,0.03,WUHU216HW,2013-03-28 16:33:00,
2013-03-28 09:38:00,47.9,44.8,30.39,SSW,203,0.0,0.9,89,0.01,,,0.03,WUHU216HW,2013-03-28 16:38:00,
2013-03-28 09:43:00,48.2,45.2,30.39,SSW,203,0.4,1.1,89,0.01,,,0.03,WUHU216HW,2013-03-28 16:43:00,
2013-03-28 09:48:00,48.2,45.2,30.39,SW,225,0.2,1.8,89,0.01,,,0.03,WUHU216HW,2013-03-28 16:48:00,
2013-03-28 09:53:00,48.4,45.4,30.39,SSE,158,0.0,1.8,89,0.00,,,0.03,WUHU216HW,2013-03-28 16:53:00,
2013-03-28 09:58:00,48.6,45.5,30.39,SSW,203,0.2,1.1,89,0.00,,,0.03,WUHU216HW,2013-03-28 16:58:00,
2013-03-28 10:03:00,49.0,45.5,30.39,SW,225,1.3,1.8,88,0.00,,,0.03,WUHU216HW,2013-03-28 17:03:00,
2013-03-28 10:08:00,49.3,45.9,30.39,SSW,203,1.1,1.8,88,0.00,,,0.03,WUHU216HW,2013-03-28 17:08:00,
2013-03-28 10:13:00,50.0,46.5,30.39,SW,225,1.1,2.2,88,0.00,,,0.03,WUHU216HW,2013-03-28 17:13:00,
2013-03-28 10:18:00,50.0,46.3,30.39,SSW,203,0.0,2.2,87,0.00,,,0.03,WUHU216HW,2013-03-28 17:18:00,
2013-03-28 10:23:00,50.6,46.8,30.39,SSW,203,0.7,1.8,87,0.00,,,0.03,WUHU216HW,2013-03-28 17:23:00,
2013-03-28 10:27:00,50.8,47.3,30.40,SW,225,0.9,1.8,88,0.00,,,0.03,WUHU216HW,2013-03-28 17:27:00,
2013-03-28 10:32:00,50.9,47.4,30.39,SSW,203,0.2,0.9,88,0.00,,,0.03,WUHU216HW,2013-03-28 17:32:00,
2013-03-28 10:37:00,51.1,47.4,30.40,WSW,248,0.4,1.8,87,0.00,,,0.03,WUHU216HW,2013-03-28 17:37:00,
2013-03-28 10:42:00,51.3,47.2,30.40,West,270,0.0,1.8,86,0.00,,,0.03,WUHU216HW,2013-03-28 17:42:00,
2013-03-28 10:47:00,51.5,47.1,30.40,SW,225,1.8,1.8,85,0.00,,,0.03,WUHU216HW,2013-03-28 17:47:00,
2013-03-28 10:52:00,51.7,47.3,30.40,SW,225,0.0,1.8,85,0.00,,,0.03,WUHU216HW,2013-03-28 17:52:00,
2013-03-28 10:57:00,51.7,47.3,30.40,SW,225,0.0,0.4,85,0.00,,,0.03,WUHU216HW,2013-03-28 17:57:00,
2013-03-28 11:02:00,51.8,47.2,30.40,SSW,203,0.4,2.0,84,0.00,,,0.03,WUHU216HW,2013-03-28 18:02:00,
2013-03-28 11:07:00,52.2,47.2,30.40,SSW,203,1.1,3.1,83,0.00,,,0.03,WUHU216HW,2013-03-28 18:07:00,
2013-03-28 11:12:00,52.4,47.3,30.40,SSE,158,0.0,3.1,83,0.00,,,0.03,WUHU216HW,2013-03-28 18:12:00,
2013-03-28 11:17:00,52.6,47.3,30.40,WSW,248,1.3,2.5,82,0.00,,,0.03,WUHU216HW,2013-03-28 18:17:00,
2013-03-28 11:22:00,52.9,47.6,30.40,NW,315,0.0,1.8,82,0.00,,,0.03,WUHU216HW,2013-03-28 18:22:00,
2013-03-28 11:27:00,53.3,48.0,30.40,SSW,203,0.4,1.8,82,0.00,,,0.03,WUHU216HW,2013-03-28 18:27:00,
2013-03-28 11:32:00,53.6,48.3,30.40,West,270,0.0,1.3,82,0.00,,,0.03,WUHU216HW,2013-03-28 18:32:00,
2013-03-28 11:37:00,54.0,48.3,30.40,WSW,248,0.7,1.3,81,0.00,,,0.03,WUHU216HW,2013-03-28 18:37:00,
2013-03-28 11:42:00,54.0,48.3,30.40,SW,225,0.0,1.8,81,0.00,,,0.03,WUHU216HW,2013-03-28 18:42:00,
2013-03-28 11:47:00,54.4,48.7,30.40,South,180,3.1,3.1,81,0.00,,,0.03,WUHU216HW,2013-03-28 18:47:00,
2013-03-28 11:52:00,54.5,48.5,30.40,NW,315,0.9,3.4,80,0.00,,,0.03,WUHU216HW,2013-03-28 18:52:00,
2013-03-28 11:57:00,54.7,48.7,30.40,North,0,0.4,3.4,80,0.00,,,0.03,WUHU216HW,2013-03-28 18:57:00,
2013-03-28 12:02:00,55.4,49.0,30.40,ENE,68,0.0,2.2,79,0.00,,,0.03,WUHU216HW,2013-03-28 19:02:00,
2013-03-28 12:07:00,56.0,48.5,30.40,SW,225,2.2,2.2,76,0.00,,,0.03,WUHU216HW,2013-03-28 19:07:00,
2013-03-28 12:12:00,56.2,49.3,30.40,SSE,158,4.7,4.7,78,0.00,,,0.03,WUHU216HW,2013-03-28 19:12:00,
2013-03-28 12:17:00,56.0,48.8,30.39,SSW,203,0.0,4.7,77,0.00,,,0.03,WUHU216HW,2013-03-28 19:17:00,
2013-03-28 12:22:00,56.2,49.3,30.39,SW,225,1.1,3.4,78,0.00,,,0.03,WUHU216HW,2013-03-28 19:22:00,
2013-03-28 12:27:00,56.2,48.6,30.39,WSW,248,1.6,2.5,76,0.00,,,0.03,WUHU216HW,2013-03-28 19:27:00,
2013-03-28 12:32:00,56.2,49.0,30.39,South,180,0.0,2.5,77,0.00,,,0.03,WUHU216HW,2013-03-28 19:32:00,
2013-03-28 12:37:00,56.3,48.8,30.39,SSW,203,0.9,1.8,76,0.00,,,0.03,WUHU216HW,2013-03-28 19:37:00,
2013-03-28 12:43:00,56.5,49.0,30.39,SW,225,0.9,1.1,76,0.00,,,0.03,WUHU216HW,2013-03-28 19:43:00,
2013-03-28 12:47:00,56.5,49.0,30.38,SSW,203,0.9,2.2,76,0.00,,,0.03,WUHU216HW,2013-03-28 19:47:00,
2013-03-28 12:52:00,56.9,49.0,30.38,SE,135,0.2,2.2,75,0.00,,,0.03,WUHU216HW,2013-03-28 19:52:00,
2013-03-28 12:58:00,56.9,49.0,30.39,SSE,158,1.1,1.1,75,0.00,,,0.03,WUHU216HW,2013-03-28 19:58:00,
2013-03-28 13:03:00,57.1,48.4,30.39,SSE,158,1.8,1.8,73,0.00,,,0.03,WUHU216HW,2013-03-28 20:03:00,
2013-03-28 13:07:00,57.2,48.2,30.39,NNE,23,0.0,1.8,72,0.00,,,0.03,WUHU216HW,2013-03-28 20:07:00,
2013-03-28 13:12:00,57.6,48.6,30.38,SE,135,1.6,4.0,72,0.00,,,0.03,WUHU216HW,2013-03-28 20:12:00,
2013-03-28 13:17:00,58.1,48.8,30.39,WSW,248,2.5,4.0,71,0.00,,,0.03,WUHU216HW,2013-03-28 20:17:00,
2013-03-28 13:22:00,58.7,49.0,30.39,NNW,338,0.4,2.7,70,0.00,,,0.03,WUHU216HW,2013-03-28 20:22:00,
2013-03-28 13:28:00,58.7,48.5,30.39,SSE,158,4.7,4.7,69,0.00,,,0.03,WUHU216HW,2013-03-28 20:28:00,
2013-03-28 13:33:00,59.0,48.9,30.39,WSW,248,2.5,4.7,69,0.00,,,0.03,WUHU216HW,2013-03-28 20:33:00,
2013-03-28 13:38:00,59.2,48.2,30.39,SW,225,1.6,4.0,67,0.00,,,0.03,WUHU216HW,2013-03-28 20:38:00,
2013-03-28 13:42:00,59.4,48.4,30.39,SSE,158,0.0,3.4,67,0.00,,,0.03,WUHU216HW,2013-03-28 20:42:00,
2013-03-28 13:47:00,58.9,48.7,30.39,SSW,203,0.7,2.0,69,0.00,,,0.03,WUHU216HW,2013-03-28 20:47:00,
2013-03-28 13:53:00,58.7,48.5,30.39,SW,225,1.1,1.8,69,0.00,,,0.03,WUHU216HW,2013-03-28 20:53:00,
2013-03-28 13:57:00,58.5,49.1,30.39,SW,225,0.9,1.1,71,0.00,,,0.03,WUHU216HW,2013-03-28 20:57:00,
2013-03-28 14:03:00,58.7,49.0,30.39,SSE,158,3.6,3.6,70,0.00,,,0.03,WUHU216HW,2013-03-28 21:03:00,
2013-03-28 14:08:00,59.6,49.1,30.39,SSE,158,3.8,3.8,68,0.00,,,0.03,WUHU216HW,2013-03-28 21:08:00,
2013-03-28 14:13:00,59.9,49.4,30.39,SSW,203,2.2,4.7,68,0.00,,,0.03,WUHU216HW,2013-03-28 21:13:00,
2013-03-28 14:17:00,60.1,49.1,30.39,SSW,203,1.6,4.7,67,0.00,,,0.03,WUHU216HW,2013-03-28 21:17:00,
2013-03-28 14:22:00,60.5,48.7,30.39,NNW,338,0.4,3.8,65,0.00,,,0.03,WUHU216HW,2013-03-28 21:22:00,
2013-03-28 14:27:00,60.7,49.7,30.38,WNW,293,1.1,3.8,67,0.00,,,0.03,WUHU216HW,2013-03-28 21:27:00,
2013-03-28 14:32:00,61.0,49.2,30.38,WSW,248,0.4,3.1,65,0.00,,,0.03,WUHU216HW,2013-03-28 21:32:00,
2013-03-28 14:37:00,61.4,49.5,30.38,NNE,23,1.1,3.1,65,0.00,,,0.03,WUHU216HW,2013-03-28 21:37:00,
2013-03-28 14:43:00,61.6,49.7,30.38,SSE,158,1.1,2.0,65,0.00,,,0.03,WUHU216HW,2013-03-28 21:43:00,
2013-03-28 14:47:00,61.6,49.7,30.38,SSW,203,1.1,2.2,65,0.00,,,0.03,WUHU216HW,2013-03-28 21:47:00,
2013-03-28 14:52:00,61.9,48.8,30.38,West,270,1.1,2.5,62,0.00,,,0.03,WUHU216HW,2013-03-28 21:52:00,
2013-03-28 14:57:00,61.9,49.6,30.38,NW,315,0.7,2.5,64,0.00,,,0.03,WUHU216HW,2013-03-28 21:57:00,
2013-03-28 15:02:00,61.9,49.2,30.38,SSW,203,2.2,2.2,63,0.00,,,0.03,WUHU216HW,2013-03-28 22:02:00,
2013-03-28 15:08:00,61.7,49.1,30.38,South,180,2.5,2.5,63,0.00,,,0.03,WUHU216HW,2013-03-28 22:08:00,
2013-03-28 15:13:00,61.7,48.6,30.38,South,180,2.5,5.4,62,0.00,,,0.03,WUHU216HW,2013-03-28 22:13:00,
2013-03-28 15:18:00,61.9,48.3,30.38,SSE,158,0.4,5.4,61,0.00,,,0.03,WUHU216HW,2013-03-28 22:18:00,
2013-03-28 15:23:00,61.7,48.6,30.37,South,180,1.1,3.4,62,0.00,,,0.03,WUHU216HW,2013-03-28 22:23:00,
2013-03-28 15:28:00,61.9,49.2,30.37,SSW,203,0.7,3.4,63,0.00,,,0.03,WUHU216HW,2013-03-28 22:28:00,
2013-03-28 15:33:00,62.3,48.7,30.37,SW,225,1.3,3.8,61,0.00,,,0.03,WUHU216HW,2013-03-28 22:33:00,
2013-03-28 15:38:00,62.5,48.4,30.37,SSE,158,4.7,4.7,60,0.00,,,0.03,WUHU216HW,2013-03-28 22:38:00,
2013-03-28 15:43:00,62.6,48.6,30.37,SW,225,1.8,4.7,60,0.00,,,0.03,WUHU216HW,2013-03-28 22:43:00,
2013-03-28 15:48:00,62.5,48.4,30.37,North,0,0.9,3.1,60,0.00,,,0.03,WUHU216HW,2013-03-28 22:48:00,
2013-03-28 15:53:00,62.5,48.4,30.37,WSW,248,1.1,3.1,60,0.00,,,0.03,WUHU216HW,2013-03-28 22:53:00,
2013-03-28 15:58:00,62.3,48.2,30.37,SW,225,1.1,4.0,60,0.00,,,0.03,WUHU216HW,2013-03-28 22:58:00,
2013-03-28 16:03:00,62.3,48.7,30.37,South,180,0.9,4.0,61,0.00,,,0.03,WUHU216HW,2013-03-28 23:03:00,
2013-03-28 16:08:00,62.1,48.5,30.37,WSW,248,0.0,2.9,61,0.00,,,0.03,WUHU216HW,2013-03-28 23:08:00,
2013-03-28 16:13:00,61.7,47.4,30.37,North,0,0.0,1.8,59,0.00,,,0.03,WUHU216HW,2013-03-28 23:13:00,
2013-03-28 16:18:00,61.6,47.6,30.37,NNW,338,0.9,1.6,60,0.00,,,0.03,WUHU216HW,2013-03-28 23:18:00,
2013-03-28 16:23:00,61.6,47.6,30.37,South,180,0.7,1.6,60,0.00,,,0.03,WUHU216HW,2013-03-28 23:23:00,
2013-03-28 16:28:00,61.7,47.8,30.37,WSW,248,2.0,4.3,60,0.00,,,0.03,WUHU216HW,2013-03-28 23:28:00,
2013-03-28 16:33:00,61.9,48.0,30.37,South,180,2.9,4.3,60,0.00,,,0.03,WUHU216HW,2013-03-28 23:33:00,
2013-03-28 16:38:00,62.1,47.6,30.37,SSW,203,2.2,3.6,59,0.00,,,0.03,WUHU216HW,2013-03-28 23:38:00,
2013-03-28 16:43:00,61.9,47.4,30.37,North,0,0.9,3.6,59,0.00,,,0.03,WUHU216HW,2013-03-28 23:43:00,
2013-03-28 16:48:00,61.7,47.4,30.37,NNW,338,1.1,5.4,59,0.00,,,0.03,WUHU216HW,2013-03-28 23:48:00,
2013-03-28 16:53:00,61.4,47.0,30.37,West,270,0.0,5.4,59,0.00,,,0.03,WUHU216HW,2013-03-28 23:53:00,
2013-03-28 16:58:00,61.2,46.8,30.38,SSW,203,0.0,0.4,59,0.00,,,0.03,WUHU216HW,2013-03-28 23:58:00,
2013-03-28 17:03:00,60.8,46.5,30.38,WSW,248,0.2,1.3,59,0.00,,,0.03,WUHU216HW,2013-03-29 00:03:00,
2013-03-28 17:08:00,60.7,46.8,30.38,WSW,248,0.0,1.3,60,0.00,,,0.03,WUHU216HW,2013-03-29 00:08:00,
2013-03-28 17:13:00,60.7,46.8,30.38,South,180,2.9,2.9,60,0.00,,,0.03,WUHU216HW,2013-03-29 00:13:00,
2013-03-28 17:18:00,60.8,46.5,30.38,South,180,0.0,2.9,59,0.00,,,0.03,WUHU216HW,2013-03-29 00:18:00,
2013-03-28 17:23:00,60.5,46.6,30.37,South,180,0.0,0.0,60,0.00,,,0.03,WUHU216HW,2013-03-29 00:23:00,
2013-03-28 17:28:00,60.5,46.6,30.38,SW,225,0.0,2.5,60,0.00,,,0.03,WUHU216HW,2013-03-29 00:28:00,
2013-03-28 17:33:00,60.5,47.1,30.37,SSW,203,1.6,2.5,61,0.00,,,0.03,WUHU216HW,2013-03-29 00:33:00,
2013-03-28 17:38:00,60.5,47.1,30.37,NE,45,0.0,2.0,61,0.00,,,0.03,WUHU216HW,2013-03-29 00:38:00,
2013-03-28 17:43:00,60.5,47.1,30.37,SSE,158,2.5,2.5,61,0.00,,,0.03,WUHU216HW,2013-03-29 00:43:00,
2013-03-28 17:48:00,60.7,47.3,30.37,South,180,0.9,2.5,61,0.00,,,0.03,WUHU216HW,2013-03-29 00:48:00,
2013-03-28 17:53:00,60.8,46.5,30.37,WSW,248,0.4,3.4,59,0.00,,,0.03,WUHU216HW,2013-03-29 00:53:00,
2013-03-28 17:58:00,60.7,47.3,30.37,SSW,203,1.3,3.6,61,0.00,,,0.03,WUHU216HW,2013-03-29 00:58:00,
2013-03-28 18:03:00,60.7,47.3,30.37,SSW,203,0.7,3.6,61,0.00,,,0.03,WUHU216HW,2013-03-29 01:03:00,
2013-03-28 18:08:00,60.7,47.6,30.37,ESE,113,1.1,1.1,62,0.00,,,0.03,WUHU216HW,2013-03-29 01:08:00,
2013-03-28 18:13:00,60.5,47.1,30.37,SSW,203,2.5,2.5,61,0.00,,,0.03,WUHU216HW,2013-03-29 01:13:00,
2013-03-28 18:18:00,60.5,46.6,30.37,SSE,158,3.6,3.6,60,0.00,,,0.03,WUHU216HW,2013-03-29 01:18:00,
2013-03-28 18:23:00,60.5,46.6,30.38,SSE,158,0.4,3.6,60,0.00,,,0.03,WUHU216HW,2013-03-29 01:23:00,
2013-03-28 18:28:00,60.3,46.9,30.38,South,180,0.0,3.4,61,0.00,,,0.03,WUHU216HW,2013-03-29 01:28:00,
2013-03-28 18:33:00,60.1,46.7,30.38,SSW,203,1.6,2.9,61,0.00,,,0.03,WUHU216HW,2013-03-29 01:33:00,
2013-03-28 18:38:00,59.9,46.1,30.38,SSW,203,4.0,4.9,60,0.00,,,0.03,WUHU216HW,2013-03-29 01:38:00,
2013-03-28 18:43:00,59.9,46.1,30.38,SW,225,1.6,4.9,60,0.00,,,0.03,WUHU216HW,2013-03-29 01:43:00,
2013-03-28 18:48:00,59.8,45.5,30.38,SSW,203,1.6,4.7,59,0.00,,,0.03,WUHU216HW,2013-03-29 01:48:00,
2013-03-28 18:53:00,59.6,45.7,30.39,WSW,248,3.1,4.7,60,0.00,,,0.03,WUHU216HW,2013-03-29 01:53:00,
2013-03-28 18:58:00,59.4,45.5,30.38,SW,225,1.8,3.1,60,0.00,,,0.03,WUHU216HW,2013-03-29 01:58:00,
2013-03-28 19:03:00,59.0,45.6,30.39,SSW,203,2.9,4.0,61,0.00,,,0.03,WUHU216HW,2013-03-29 02:03:00,
2013-03-28 19:08:00,58.7,44.4,30.39,South,180,2.9,4.7,59,0.00,,,0.03,WUHU216HW,2013-03-29 02:08:00,
2013-03-28 19:13:00,58.5,44.7,30.39,WSW,248,0.4,4.7,60,0.00,,,0.03,WUHU216HW,2013-03-29 02:13:00,
2013-03-28 19:18:00,58.1,44.8,30.39,SW,225,1.1,2.9,61,0.00,,,0.03,WUHU216HW,2013-03-29 02:18:00,
2013-03-28 19:23:00,58.0,44.7,30.39,West,270,0.0,2.9,61,0.00,,,0.03,WUHU216HW,2013-03-29 02:23:00,
2013-03-28 19:28:00,57.6,44.6,30.39,SW,225,2.5,2.9,62,0.00,,,0.03,WUHU216HW,2013-03-29 02:28:00,
2013-03-28 19:33:00,57.4,44.9,30.39,NW,315,2.9,2.9,63,0.00,,,0.03,WUHU216HW,2013-03-29 02:33:00,
2013-03-28 19:38:00,57.1,44.6,30.40,East,90,0.0,2.9,63,0.00,,,0.03,WUHU216HW,2013-03-29 02:38:00,
2013-03-28 19:43:00,56.7,44.7,30.40,NE,45,0.0,1.6,64,0.00,,,0.03,WUHU216HW,2013-03-29 02:43:00,
2013-03-28 19:48:00,56.5,44.8,30.40,North,0,0.4,0.9,65,0.00,,,0.03,WUHU216HW,2013-03-29 02:48:00,
2013-03-28 19:53:00,56.2,44.9,30.40,ENE,68,1.1,1.1,66,0.00,,,0.03,WUHU216HW,2013-03-29 02:53:00,
2013-03-28 19:58:00,55.8,45.0,30.40,SE,135,0.0,2.7,67,0.00,,,0.03,WUHU216HW,2013-03-29 02:58:00,
2013-03-28 20:03:00,55.6,44.8,30.40,ENE,68,0.0,2.7,67,0.00,,,0.03,WUHU216HW,2013-03-29 03:03:00,
2013-03-28 20:08:00,55.4,45.1,30.40,NNE,23,0.0,0.7,68,0.00,,,0.03,WUHU216HW,2013-03-29 03:08:00,
2013-03-28 20:13:00,55.3,44.9,30.40,NNE,23,0.4,0.4,68,0.00,,,0.03,WUHU216HW,2013-03-29 03:13:00,
2013-03-28 20:18:00,55.1,45.1,30.40,NNE,23,0.0,0.9,69,0.00,,,0.03,WUHU216HW,2013-03-29 03:18:00,
2013-03-28 20:23:00,54.7,44.7,30.41,NNE,23,0.0,0.9,69,0.00,,,0.03,WUHU216HW,2013-03-29 03:23:00,
2013-03-28 20:28:00,54.5,44.6,30.41,NNE,23,0.0,0.2,69,0.00,,,0.03,WUHU216HW,2013-03-29 03:28:00,
2013-03-28 20:33:00,54.4,44.8,30.41,NNW,338,0.0,0.2,70,0.00,,,0.03,WUHU216HW,2013-03-29 03:33:00,
2013-03-28 20:38:00,54.2,44.6,30.41,NE,45,0.0,0.4,70,0.00,,,0.03,WUHU216HW,2013-03-29 03:38:00,
2013-03-28 20:43:00,54.0,44.8,30.41,West,270,0.0,0.4,71,0.00,,,0.03,WUHU216HW,2013-03-29 03:43:00,
2013-03-28 20:48:00,53.8,44.7,30.41,West,270,0.0,0.0,71,0.00,,,0.03,WUHU216HW,2013-03-29 03:48:00,
2013-03-28 20:53:00,53.6,44.8,30.41,West,270,0.0,0.0,72,0.00,,,0.03,WUHU216HW,2013-03-29 03:53:00,
2013-03-28 20:58:00,53.1,44.3,30.42,West,270,0.0,0.0,72,0.00,,,0.03,WUHU216HW,2013-03-29 03:58:00,
2013-03-28 21:00:00,52.9,44.2,30.42,NNE,23,0.4,0.4,72,0.00,,,0.03,WUHU216HW,2013-03-29 04:00:00,
2013-03-28 21:05:00,52.7,44.0,30.42,NNE,23,0.0,0.4,72,0.00,,,0.03,WUHU216HW,2013-03-29 04:05:00,
2013-03-28 21:10:00,52.6,43.8,30.42,NNE,23,0.0,0.0,72,0.00,,,0.03,WUHU216HW,2013-03-29 04:10:00,
2013-03-28 21:15:00,52.6,44.2,30.43,NNE,23,0.0,0.0,73,0.00,,,0.03,WUHU216HW,2013-03-29 04:15:00,
2013-03-28 21:20:00,52.2,43.8,30.43,NNE,23,0.0,0.0,73,0.00,,,0.03,WUHU216HW,2013-03-29 04:20:00,
2013-03-28 21:25:00,52.0,43.7,30.43,NNE,23,0.0,0.0,73,0.00,,,0.03,WUHU216HW,2013-03-29 04:25:00,
2013-03-28 21:30:00,51.8,43.8,30.43,NNE,23,0.0,0.0,74,0.00,,,0.03,WUHU216HW,2013-03-29 04:30:00,
2013-03-28 21:35:00,51.5,43.8,30.43,NNE,23,0.0,0.0,75,0.00,,,0.03,WUHU216HW,2013-03-29 04:35:00,
2013-03-28 21:40:00,51.5,43.8,30.43,NNE,23,0.0,0.0,75,0.00,,,0.03,WUHU216HW,2013-03-29 04:40:00,
2013-03-28 21:45:00,51.3,43.7,30.43,NNE,23,0.0,0.0,75,0.00,,,0.03,WUHU216HW,2013-03-29 04:45:00,
2013-03-28 21:50:00,51.1,43.5,30.43,NNE,23,0.0,0.0,75,0.00,,,0.03,WUHU216HW,2013-03-29 04:50:00,
2013-03-28 21:55:00,50.9,43.7,30.43,NNE,23,0.0,0.0,76,0.00,,,0.03,WUHU216HW,2013-03-29 04:55:00,
2013-03-28 22:00:00,50.8,43.5,30.43,NNE,23,0.0,0.0,76,0.00,,,0.03,WUHU216HW,2013-03-29 05:00:00,
2013-03-28 22:05:00,50.8,43.5,30.43,NNE,23,0.0,0.0,76,0.00,,,0.03,WUHU216HW,2013-03-29 05:05:00,
2013-03-28 22:10:00,50.8,43.8,30.43,NNE,23,0.0,0.0,77,0.00,,,0.03,WUHU216HW,2013-03-29 05:10:00,
2013-03-28 22:15:00,50.8,43.8,30.44,NNE,23,0.0,0.0,77,0.00,,,0.03,WUHU216HW,2013-03-29 05:15:00,
2013-03-28 22:20:00,50.8,43.8,30.44,NNE,23,0.0,0.0,77,0.00,,,0.03,WUHU216HW,2013-03-29 05:20:00,
2013-03-28 22:25:00,50.8,44.1,30.44,NNE,23,0.0,0.0,78,0.00,,,0.03,WUHU216HW,2013-03-29 05:25:00,
2013-03-28 22:30:00,50.8,44.1,30.44,NNE,23,0.0,0.0,78,0.00,,,0.03,WUHU216HW,2013-03-29 05:30:00,
2013-03-28 22:35:00,50.8,44.1,30.44,North,0,0.4,0.4,78,0.00,,,0.03,WUHU216HW,2013-03-29 05:35:00,
2013-03-28 22:40:00,50.6,43.9,30.44,North,0,0.4,0.4,78,0.00,,,0.03,WUHU216HW,2013-03-29 05:40:00,
2013-03-28 22:45:00,50.4,43.7,30.44,North,0,0.0,0.4,78,0.00,,,0.03,WUHU216HW,2013-03-29 05:45:00,
2013-03-28 22:50:00,50.4,44.1,30.44,North,0,0.0,0.4,79,0.00,,,0.03,WUHU216HW,2013-03-29 05:50:00,
2013-03-28 22:55:00,50.4,44.1,30.45,North,0,0.0,0.4,79,0.00,,,0.03,WUHU216HW,2013-03-29 05:55:00,
2013-03-28 23:00:00,50.4,44.5,30.45,North,0,0.0,0.0,80,0.00,,,0.03,WUHU216HW,2013-03-29 06:00:00,
2013-03-28 23:05:00,50.2,44.3,30.44,North,0,0.0,0.0,80,0.00,,,0.03,WUHU216HW,2013-03-29 06:05:00,
2013-03-28 23:10:00,50.2,44.3,30.45,North,0,0.0,0.0,80,0.00,,,0.03,WUHU216HW,2013-03-29 06:10:00,
2013-03-28 23:15:00,50.2,44.3,30.45,North,0,0.0,0.0,80,0.00,,,0.03,WUHU216HW,2013-03-29 06:15:00,
2013-03-28 23:20:00,50.2,44.3,30.45,North,0,0.0,0.0,80,0.00,,,0.03,WUHU216HW,2013-03-29 06:20:00,
2013-03-28 23:25:00,50.0,44.1,30.45,North,0,0.0,0.0,80,0.00,,,0.03,WUHU216HW,2013-03-29 06:25:00,
2013-03-28 23:30:00,50.0,44.1,30.45,North,0,0.0,0.0,80,0.00,,,0.03,WUHU216HW,2013-03-29 06:30:00,
2013-03-28 23:35:00,49.9,43.9,30.46,North,0,0.0,0.0,80,0.00,,,0.03,WUHU216HW,2013-03-29 06:35:00,
2013-03-28 23:40:00,49.7,43.7,30.46,North,0,0.0,0.0,80,0.00,,,0.03,WUHU216HW,2013-03-29 06:40:00,
2013-03-28 23:45:00,49.5,43.6,30.46,North,0,0.0,0.0,80,0.00,,,0.03,WUHU216HW,2013-03-29 06:45:00,
2013-03-28 23:50:00,49.3,43.7,30.46,North,0,0.0,0.0,81,0.00,,,0.03,WUHU216HW,2013-03-29 06:50:00,
2013-03-28 23:55:00,49.1,43.5,30.46,North,0,0.0,0.0,81,0.00,,,0.03,WUHU216HW,2013-03-29 06:55:00,